FREGAT DEB, 45614

Orbit data source: Space-Track

FREGAT DEB, 45614 is space debris in LEO originally from a launch on Mon, 18 Jul 2011 UTC launched from the Tyuratam Missile And Space Complex (TTMTR). Debris objects in space refer to the collection of defunct objects orbiting the Earth. Examples of debris include non-operational satellites, rocket bodies, and fragments generated from explosions, collisions, or faulty payload assembly.

Loading next visibility...
Identifier
45614, 2011-037H
Orbit
LEO
Last TLE update
5 hours ago
Origin
Manufacturer
Lavochkin
Mission
Spacecraft
Bus & Motor
Unknown
Mass
Unknown
Launch date (UTC)
2011-07-18 (14 years ago)
Launch vehicle
Unknown
Launch site
Tyuratam Missile And Space Complex (TTMTR)
Object type
Payload
Rocket body
Debris
Shape & HBR
Unknown
Radar Cross Section
Medium (>0.1 m² and <1 m²)

Expand to show TLE details & history

TLE from 5 hours ago
0 FREGAT DEB
1 45614U 11037H   25186.76121171  .00489634  00000-0  47651-1 0  9998
2 45614  51.1851   0.8747 0190742 223.9287 134.6366 14.77306497227520
Epoch: 2025-07-05T18:16Z
TLE epoch observation values (Epoch: 2025-07-05T18:16:08.691Z)
Latitude
-0.00004°
Longitude
162.84384°
Altitude
733.796 km
Speed
7.438 km/s
True Right ascension
00h 03m 29s
True Declination
0° 00' 00"
Sunlit
Object was in daylight at epoch
Visualization orbit readout
Latitude
-12.33494°
Longitude
151.8717°
Altitude
704.458 km
Speed
7.47 km/s
Apparent Right ascension
23h 11m 35s
Apparent Declination
-25° 16' 21"
Sunlit
Object is in full shadow
Visualization observer readout
Local Sidereal Time
11:00:16
Azimuth
349.953° N
Elevation
-75.166°
Doppler factor
1
Orbital elements
Apogee altitude
772.239 km
Perigee altitude
504.57 km
Semi-major axis
7,016.542 km
Eccentricity
0.01907
Inclination
51.1851°
RAAN
0.8747°
Arg. of periapsis
223.9287°
True anomaly
Unknown
Mean anomaly
134.6366°
Eccentric anomaly
Unknown
Mean motion
3.69282 °/min
Orbital period
97.49 mins
BSTAR
0.047651
Loading maneuver chart data...
Loading SW <> Apogee altitude chart data...
Loading historical data...
Loading historical data...
Loading historical data...
Loading historical data...
Loading historical data...
Loading historical data...
Loading historical data...

FREGAT DEB Visibility forecast

Observer location: undefined°, undefined°

Span
Click to sort rows by Start time (UTC) header in descending order
Start Az.
Max El. time (UTC)
Max El. Az.
Max El.
End time (UTC)
End Az.
9 mins2025-07-06 13:53:58.643Z209.289° SW2025-07-06 13:58:58.643Z120.995° SE37.499°2025-07-06 14:02:58.643Z64.386° ENE
8 mins2025-07-06 15:36:58.643Z270.001° WNW2025-07-06 15:40:58.643Z349.134° N34.063°2025-07-06 15:44:58.643Z43.744° NE
6 mins2025-07-06 17:20:58.643Z318.608° NNW2025-07-06 17:22:58.643Z348.768° N21.804°2025-07-06 17:26:58.643Z44.511° NE
7 mins2025-07-06 19:02:58.643Z324.173° NNW2025-07-06 19:05:58.643Z9.055° NNE25.327°2025-07-06 19:09:58.643Z71.901° E
8 mins2025-07-06 20:44:58.643Z308.556° NW2025-07-06 20:48:58.643Z98.647° ESE43.851°2025-07-06 20:52:58.643Z124.101° SE
4 mins2025-07-06 22:27:58.643Z258.913° W2025-07-06 22:29:58.643Z228.271° WSW16.332°2025-07-06 22:31:58.643Z199.172° SSW
|